COSMOS 2127

导读

COSMOS 2127是由独联体(CIS)于1991年2月12日发射的军用卫星,隶属于苏联/俄罗斯“宇宙”(COSMOS)卫星系列。该系列是苏联/俄罗斯最大的卫星家族,涵盖侦察、通信、气象、技术试验等多种军事航天任务,多数为军用侦察或技术验证卫星。作为冷战末期发射的航天器,它承载着当时独联体航天领域的军事应用需求,服役期间完成了既定轨道任务,是苏联航天遗产在独联体时期的重要延续,见证了冷战后期航天技术发展与军事航天部署的历史进程。

基本信息
目录编号:
21102
目录名称:
COSMOS 2127
国际标识:
1991-009C
轨道中心:
EARTH
卫星名称:
COSMOS 2127
卫星全名:
--
卫星状态:
在轨 (已飞行12998 天)
发射日期:
1991-02-12 UTC
国别 :
俄罗斯(独联体) (CIS)
星等 :
--
该卫星已列入 空间交会检测服务 Space Conjunction Data Service (SCDS) ,当前飞行风险评估等级: 无高风险
轨道信息
数据来源 国际轨道数据 AOE轨道数据
星历时间 2026-09-14T03:06:34+0800
12小时前
查看轨道信息
2026-09-13T00:00:00+0800
1天前
查看轨道信息
半长轴 7850.253km 7850.251km
偏心率 0.0007086 0.0007099
轨道倾角 74.026° 74.026°
近地点辐角 215.711° 216.543°
升交点赤经 260.177° 261.673°
平近点角 317.905° 283.128°
近地点 1466.553km 1466.541km
远地点 1477.679km 1477.687km
周期 115.368分钟 115.368分钟
每日圈数 12.481803 12.481807
详细信息
使用方式:
暂无
2D轨道图
3D轨道图
轨道高度分析图
轨道倾角分析图
轨道综合分析图
查看轨道综合分析图
与全量物体交会距离演化趋势 订阅飞行安全评估服务
与全量物体交会风险概率演化趋势 订阅飞行安全评估服务